GAOFEN 3 DEB, 42678

Orbit data source: Space-Track

GAOFEN 3 DEB, 42678 is space debris in SSO originally from a launch on Tue, 09 Aug 2016 UTC launched from the Taiyaun Space Center, China (TSC). Debris objects in space refer to the collection of defunct objects orbiting the Earth. Examples of debris include non-operational satellites, rocket bodies, and fragments generated from explosions, collisions, or faulty payload assembly.

Loading next visibility...
Identifier
42678, 2016-049C
Orbit
SSO
Country
Flag of CNCN / PRC
Related business
Manufacturer
Unknown
Mission
Spacecraft
Bus & Motor
Unknown
Mass
Unknown
Launch date (UTC)
2016-08-09 (9 years ago)
Launch vehicle
Unknown
Launch site
Taiyaun Space Center, China (TSC)
Object type
Payload
Rocket body
Debris
Shape & HBR
Unknown shape, 0.1 m
Radar Cross Section
Small (<0.1 m²)

Expand to show TLE details & history
Last TLE update: 1 day ago

TLE from 1 day ago
0 GAOFEN 3 DEB
1 42678U 16049C   25295.29886728  .00000385  00000-0  11865-3 0  9990
2 42678  98.3238 306.0341 0008593   4.7016 355.4256 14.46615757479525
Epoch: 2025-10-22T07:10Z
TLE epoch observation values (Epoch: 2025-10-22T07:10:22.132Z)
Latitude
0.00005°
Longitude
167.4674°
Altitude
733.591 km
Speed
7.491 km/s
True Right ascension
20h 24m 08s
True Declination
0° 00' 00"
Sunlit
Object was in daylight at epoch
Visualization orbit readout
Latitude
Unknown
Longitude
Unknown
Altitude
Unknown
Speed
Unknown
Apparent Right ascension
Unknown
Apparent Declination
Unknown
Sunlit
N/A
Visualization observer readout
Local Sidereal Time
06:33:02
Azimuth
Unknown
Elevation
Unknown
Doppler factor
Unknown
Orbital elements
Apogee altitude
739.939 km
Perigee altitude
727.717 km
Semi-major axis
7,111.965 km
Eccentricity
0.00086
Inclination
98.3238°
RAAN
306.0341°
Arg. of periapsis
4.7016°
True anomaly
355.41774°
Mean anomaly
355.4256°
Eccentric anomaly
355.42167°
Mean motion
3.61875 °/min
Orbital period
99.48 mins
BSTAR
0.00011865
Loading maneuver chart data...
Computing Atmospheric mass density...
Loading historical data...
Loading historical data...
Loading historical data...
Loading historical data...
Loading historical data...
Loading historical data...
Loading historical data...
Other satellites on launch #49 in the year 2016 (2016-08-09 UTC)

Documentation

Showing up to 5 results
|